Home   Weather   Enns   Past weeks

Flag for Austria Past Weather in Enns, Upper Austria, Austria — Yesterday and Last 2 Weeks

Now
25 °F

Overcast.


Feels Like: 21 °F
Forecast: 7 / 23 °F
Wind: 3 mph from Northeast

Location: Linz / Hoersching-Flughafen

Current Time: Jan 18, 2017 at 5:15:52 am

Latest Report: Jan 18, 2017 at 4:00 am


Visibility: 18 mi

Pressure: 30.62 "Hg

Humidity: 71%

Dew Point: 17 °F

Location of EnnsLocation

Past Weather in Enns — Graph

°F

Enns Temperature Yesterday

Maximum temperature yesterday: 27 °F (at 2:00 pm)
Minimum temperature yesterday: 24 °F (at 4:00 am)
Average temperature yesterday: 26 °F

High & Low Weather Summary for the Past Weeks

 TemperatureHumidityPressure
High40 °F (Jan 13, 11:00 am)99% (Jan 4, 8:00 am)30.77 "Hg (Jan 4, 8:00 am)
Low3 °F (Jan 7, 7:00 am)55% (Jan 13, 1:00 pm)29.44 "Hg (Jan 13, 4:00 am)
Average26 °F82%30.18 "Hg
* Reported Jan 3 4:00 am — Jan 18 4:00 am, Enns, Weather by CustomWeather, © 2017

Note: Actual official high and low records may vary slightly from our data, if they occured in-between our weather recording intervals... More about our weather records

Advertising

Enns Weather History for the Previous 24 Hours

Scroll right to see more
 ConditionsComfort  
Time TempWeatherWind HumidityBarometerVisibility
4:00 am
Wed, Jan 18
25 °FOvercast.3 mph71%30.62 "Hg18 mi
3:00 am26 °FOvercast.3 mph70%30.63 "Hg19 mi
2:00 am26 °FOvercast.N/A69%30.63 "Hg19 mi
1:00 am26 °FOvercast.6 mph69%30.62 "Hg19 mi
12:00 am26 °FOvercast.5 mph70%30.62 "Hg19 mi
11:00 pm
Tue, Jan 17
26 °FOvercast.5 mph70%30.61 "Hg22 mi
10:00 pm26 °FOvercast.3 mph70%30.60 "Hg19 mi
9:00 pm26 °FOvercast.N/A74%30.59 "Hg19 mi
8:00 pm25 °FOvercast.N/A79%30.59 "Hg12 mi
7:00 pm26 °FOvercast.N/A77%30.57 "Hg18 mi
6:00 pm26 °FLight snow. Overcast.N/A77%30.55 "Hg5 mi
5:00 pm27 °FOvercast.N/A71%30.55 "Hg22 mi
4:00 pm27 °FOvercast.3 mph72%30.54 "Hg19 mi
3:00 pm27 °FOvercast.5 mph71%30.52 "Hg18 mi
2:00 pm27 °FOvercast.5 mph68%30.51 "Hg14 mi
1:00 pmN/APassing clouds.No windN/AN/A1 mi
12:00 pm27 °FOvercast.5 mph70%30.51 "Hg19 mi
11:00 am26 °FOvercast.N/A73%30.51 "Hg17 mi
10:00 am26 °FSnow flurries. Overcast.N/A76%30.49 "Hg17 mi
9:00 am25 °FOvercast.5 mph78%30.47 "Hg22 mi
8:00 am26 °FSnow flurries. Overcast.N/A81%30.45 "Hg11 mi
7:00 am26 °FLight snow. Overcast.N/A91%30.42 "Hg4 mi
6:00 am26 °FLight snow. Overcast.N/A95%30.41 "Hg3 mi
5:00 am24 °FLight snow. Overcast.N/A96%30.39 "Hg2 mi
Weather by CustomWeather, © 2017

See weather overviewHow to use our weather pages